LEMUR-2 KUTAR

导读

LEMUR-2 KUTAR是美国于2026年1月11日发射的LEMUR-2系列立方星,延续系列技术路线,搭载先进GNSS-R反射测量设备。卫星运行于近地轨道,主要服务于全球气象监测与海洋科学研究,可获取海面风速、浪高及土壤湿度等环境参数,为气象预报、气候研究和灾害预警提供高精度实时观测数据,助力完善全球地球观测数据网络。

基本信息
目录编号:
67363
目录名称:
LEMUR-2 FIKRETDENGIZ
国际标识:
2026-004A
轨道中心:
EARTH
卫星名称:
LEMUR-2 KUTAR
卫星全名:
LEMUR-2 KUTAR
卫星状态:
在轨 (已飞行157 天)
发射日期:
2026-01-11 UTC
国别 :
美国 (US)
星等 :
--
轨道信息
数据来源 国际轨道数据
星历时间: 2026-06-17T12:50:14+0800
6小时前
查看轨道信息
半长轴: 6981.308km
偏心率: 0.0010116
轨道倾角: 97.801°
近地点辐角 133.021°
升交点赤经 166.759°
平近点角 227.185°
近地点: 596.108km
远地点: 610.234km
周期: 96.753分钟
每日圈数: 14.883244
详细信息
使用方式:
暂无
2D轨道图
3D轨道图
轨道高度分析图
轨道倾角分析图
轨道综合分析图
查看轨道综合分析图